sat.trackr.live / text

‹ back to catalog

STARLINK-34609

NORAD 64768 · 2025-147P

PAYLOAD ACTIVE UNKNOWN

§ Identity

Operator
Country
US
Launch date
2025-07-08
Launch site
AFETR
Launch vehicle
Mass (kg)
RCS (m²)

Purposes: comms

External: N2YO · Heavens-Above · Gunter

§ Orbital elements

Epoch: 2026-05-24T23:42:34.261056Z

Period
94.10 min
Inclination
53.1581°
Eccentricity
0.0001321
Mean motion
15.30212535 rev/d
Perigee alt
474.3 km
Apogee alt
476.1 km
Semi-major
6,853.3 km
B*
5.7314e-4
RAAN
238.3950°
Arg perigee
76.4818°
Mean anomaly
283.6329°
Rev number
5,057

§ Raw data

STARLINK-346091 64768U 25147P   26144.98789654  .00016660  00000+0  57314-3 0  99942 64768  53.1581 238.3950 0001321  76.4818 283.6329 15.30212535 50574

JSON: /api/v1/satellites/64768 · /tle

For live sub-satellite position, see the globe view (requires WebGL).

§ Visibility from observer

Set your observer location to see the next 7 days of passes ≥ 10°. The values pass through the URL so the page stays shareable.

No JS? Fill the form by hand. The geolocation button needs JavaScript.